ATLAS D R/B

Satellite information

Favourite Embed

Satellite Type and Status

ROCKET BODYIN ORBIT

Key statistics

Satellite ATLAS D R/B at a glance.

Uptime

21763

Days in orbit

Revolutions

≈ 13.3

Per day

Orbit

SSO

Sun Synchronous Orbit

Inclination

144.2

Latest

Satellite identification and parameters

Extended collection of information and parameters for ATLAS D R/B.

Object identification

Identified? True

Debris? False

Object name: ATLAS D R/B

International designator: 1965-078B

Object number (NORAD): 1616

Object ID (CCSDS): 1616

Country: UNITED STATES OF AMERICA (US)

Current information (Y/N): Y

RCS size: MEDIUM

Orbital parameters

Period: 108.142 minutes

Inclination: 144.2297 deg

SMA: 7518.936 km

Apoapsis: 1887.734 km

Periapsis: 393.867 km

RAAN: 163.2465 deg

Eccentricy: 0.0993403

Argument of periapsis: 358.3167 deg

Mean anomaly: 1.4442 deg

Mean motion: 13.31582897 rev/day

Mean motion (dot): 0.00008987 rev/day2

B* drag term: 0.00078511 1/REarth

Two-line elements (TLE)

Creation date: May 6, 2025, 3:54 a.m.

Reference frame: TEME

Reference center: EARTH

Epoch: May 5, 2025, 9:39 p.m. UTC

TLE line 0: 0 ATLAS D R/B

TLE line 1: 1 01616U 65078B 25125.90221606 .00008987 00000-0 78511-3 0 9998

TLE line 2: 2 01616 144.2297 163.2465 0993403 358.3167 1.4442 13.31582897696275

Live tracking on map

Real-time ground track for satellite ATLAS D R/B.

In-orbit conjunctions

A list of the most updated potential collisions computed for object ATLAS D R/B.

Target Orbit TCA Probability of collision Miss distance Type
COSMOS 1932 DEB LEO 2025-02-23 00:17:42 0.0003171164 388.0 (m) DEBRIS

Associated space launch

The OV1 (Orbiting Vehicle 1) were small research satellite to be launched piggy back on Atlas ICBM test flights. They consisted in general of the OV1 satellite and the OV1-PM propulsion module (or upper stage) to reach orbit.

ATLAS D R/B was lifted into orbit during the mission ‘Atlas D | OV1-2’, on board a Atlas D space rocket.

The launch took place on Oct. 5, 1965, 9:07 a.m. from 576B3.

For more information about the launch, click the button.

Launch to space Atlas D | OV1-2
Atlas D | OV1-2

Agency: N/A

Status: Launch Successful

Launch date: Oct. 5, 1965, 9:07 a.m. UTC

Rocket: Atlas D

Launch pad: 576B3

Location: Vandenberg SFB, CA, USA

...

Latest news about this satellite

There are no fresh news available about this satellite. Check back as we update our databases every day.


Newsletter sign-up

Weekly statistics, charts and insights to help you stay on top of the space industry.